sat.trackr.live / text

‹ back to catalog

STARLINK-30086

NORAD 56297 · 2023-056M

PAYLOAD ACTIVE UNKNOWN

§ Identity

Operator
Country
US
Launch date
2023-04-19
Launch site
AFETR
Launch vehicle
Mass (kg)
RCS (m²)

Purposes: comms

External: N2YO · Heavens-Above · Gunter

§ Orbital elements

Epoch: 2026-09-19T23:47:51.843264Z

Period
94.27 min
Inclination
43.0040°
Eccentricity
0.0001458
Mean motion
15.27572666 rev/d
Perigee alt
482.1 km
Apogee alt
484.1 km
Semi-major
6,861.2 km
B*
7.6831e-6
RAAN
191.7291°
Arg perigee
281.5882°
Mean anomaly
78.4806°
Rev number
18,975

§ Raw data

STARLINK-300861 56297U 23056M   26262.99157226 -.00000051  00000+0  76831-5 0  99902 56297  43.0040 191.7291 0001458 281.5882  78.4806 15.27572666189754

JSON: /api/v1/satellites/56297 · /tle

For live sub-satellite position, see the globe view (requires WebGL).

§ Visibility from observer

Set your observer location to see the next 7 days of passes ≥ 10°. The values pass through the URL so the page stays shareable.

No JS? Fill the form by hand. The geolocation button needs JavaScript.